Location: *
(13.0000°N, 151.6000°E)
Time: 04:37:12
(UTC+00:00)

Cosmos 468 - Pass Details

Date: 01 April 2020
Orbit: 761 x 784 km, 74.0° (Epoch: 24 May)

Event Time Altitude Azimuth Distance (km) Brightness Sun altitude
Rises 18:53:26 0° 343° (NNW) 3,262 7.7 -14.3°
Reaches altitude 10° 18:55:49 10° 341° (NNW) 2,334 6.9 -13.8°
Maximum altitude 19:01:06 72° 258° (WSW) 821 4.5 -12.5°
Drops below altitude 10° 19:06:23 10° 174° (S) 2,326 7.0 -11.2°
Sets 19:08:46 0° 172° (S) 3,251 7.8 -10.6°
